Regional Weather Roundup
Issued by NWS

Home | Current Version | Previous Version | Text Only | Print | Product List | Glossary On
Versions: 1 2 3 4 5 6 7 8 9 10 11 12 13 14 15 16 17 18 19 20 21 22 23 24 25 26 27 28 29 30 31 32 33 34 35 36 37 38 39 40 41 42 43 44 45 46 47 48 49 50
000
ASUS45 KABQ 212310
RWRNM
NEW MEXICO REGIONAL WEATHER ROUNDUP
NATIONAL WEATHER SERVICE ALBUQUERQUE NM
500 PM MDT SAT OCT 21 2017

NOTE: "FAIR" MEANS FEW OR NO CLOUDS BELOW 12,000 FEET AGL WITH NO
       SIGNIFICANT WEATHER OR OBSTRUCTIONS TO VISION.

      THIS PRODUCT IS RELEASED AS TWO VERSIONS.  ONE VERSION NEAR
      THE TOP OF THE HOUR CONTAINING PRELIMINARY DATA FROM ALBUQUERQUE
      AND OTHER STATIONS.  A FINAL VERSION WITH ADDITIONAL DATA IS
      ISSUED ABOUT 10 MINUTES AFTER THE HOUR.

NMZ501-503-504-510>518-220000-
NORTHWEST PLATEAU/NORTHCENTRAL MOUNTAINS

CITY           SKY/WX    TMP DP  RH WIND       PRES   REMARKS
FARMINGTON     FAIR      55   1  11 W20G28    30.15R
LOS ALAMOS     FAIR      55   2  12 W13G18    30.14R
SANTA FE       FAIR      59  -1   9 W22G28    30.08R
TAOS           FAIR      56   9  15 W16G25    30.12R
ANGEL FIRE     FAIR      49  11  22 W18       30.13R

$$
NMZ402-403-502-505>509-220000-
WESTCENTRAL MOUNTAINS/SOUTHWEST MOUNTAINS

CITY           SKY/WX    TMP DP  RH WIND       PRES   REMARKS
GALLUP         FAIR      59   2  10 NW13      30.20R
GRANTS         FAIR      61  10  13 NW13G29   30.18R
SILVER CITY    FAIR      71  29  21 W17       30.10R

$$
NMZ407-409-411-412-220000-
SOUTHERN DESERTS

CITY           SKY/WX    TMP DP  RH WIND       PRES   REMARKS
DEMING         FAIR      77  27  15 W16G25    30.04R
LAS CRUCES     FAIR      77  26  15 W15       30.04R
HOLLOMAN AFB   FAIR      75  36  24 NW7       30.02R HAZE
ALAMOGORDO     FAIR      75  34  22 N8        30.02R
T OR C         FAIR      76  20  12 N15G26    30.04R

$$
NMZ519>523-220000-
CENTRAL VALLEYS/CENTRAL HIGHLANDS

CITY           SKY/WX    TMP DP  RH WIND       PRES   REMARKS
ALBUQUERQUE    FAIR      63   9  12 NW16G25   30.12R
DOUBLE EAGLE   MOSUNNY   63  14  15 NW17G25   30.12
MORIARTY ARPT  FAIR      62  11  14 W15G25    30.12R
CLINES CORNERS NOT AVBL
BELEN          FAIR      68  16  14 NW15G22   30.09R
SOCORRO        FAIR      71  21  15 NW12G28   30.06R

$$
NMZ524>526-539-540-220000-
SOUTHCENTRAL MOUNTAINS

CITY           SKY/WX    TMP DP  RH WIND       PRES   REMARKS
RUIDOSO        FAIR      59  30  33 NW18G30   30.14R

$$
NMZ527>531-220000-
NORTHEAST HIGHLANDS/NORTHEAST PLAINS

CITY           SKY/WX    TMP DP  RH WIND       PRES   REMARKS
LAS VEGAS      FAIR      58  -1   9 NW21G29   30.06R
RATON          LGT RAIN  50  35  56 E12       30.04R
CLAYTON        FAIR      56  23  27 NE15      30.04R

$$
NMZ532>537-220000-
EASTCENTRAL PLAINS

CITY           SKY/WX    TMP DP  RH WIND       PRES   REMARKS
SANTA ROSA     FAIR      67  22  17 W18G28    29.96S
TUCUMCARI      PTSUNNY   61  36  39 E15       29.97R
CANNON AFB     FAIR      64  40  41 NE25G31   29.98R
CLOVIS AIRPORT PTSUNNY   62  40  44 NE23      29.97R

$$
NMZ028-029-538-220000-
SOUTHEAST PLAINS

CITY           SKY/WX    TMP DP  RH WIND       PRES   REMARKS
ROSWELL        FAIR      77  32  19 NW20G25   29.94R
ARTESIA        FAIR      79  36  21 NW14G21   29.94R
CARLSBAD       FAIR      80  40  23 W18G24    29.90R
HOBBS          MOSUNNY   77  45  31 NW17G24   29.93R


$$




USA.gov is the U.S. government's official web portal to all federal, state and local government web resources and services.